Bangkok Bridge — 3FTZ8 — position and weather

sailwx.info

Track history (hours):
 
Tides and Currents Weather Stations Pressure Air Temp Water Temp Dewpoint Dewpoint Depression Visibility Wind Speed Wind Dir Waves Ship Positions

Bangkok Bridge

Last reported at 2017-Dec-15 21:00 UTC. Time now 2017-Dec-16 12:44 UTC.
Position N 47°30' E 154°36'.

Length 267 m; draft 11.8 m.

Type: Ship (hazmat cat A). MMSI: 353368000.

Wind from 230 at 26 knots

Barometer 1011.0 mb
Air temperature 1.0 ° C
Visibility: greater than 5.4 NM
Water temperature 12.0 ° C

Date/timePositionNaut miles runAvg speedWind from/ knotsBaromVisibWave heightAir tempDewpointWater temp
2017-Dec-15 21:00N 47°30' E 154°36'154361.7 230 / 261011.0 5.4 1.0 12.0
2017-Dec-14 20:00N 53°06' W 166°06'48420.2 340 / 26987.0 5.4 2.0 13.0
2017-Dec-13 20:00N 54°06' W 179°36'47419.7 090 / 22994.0 5.4 3.0 14.0
2017-Dec-12 20:00N 54°24' W 166°06'167 7.0 360 / 21990.0 5.4 4.0 15.0
2017-Dec-11 20:00N 53°42' W 161°30'   070 / 7982.0 5.4 12.0 19.0
2017-Dec-07 19:41N 38°58' W 129°20'419.8
2017-Dec-07 19:30N 38°56' W 129°16'1019.8
2017-Dec-07 19:00N 38°51' W 129°05'5919.6
2017-Dec-07 16:00N 38°18' W 128°03'919.1
2017-Dec-07 15:30N 38°13' W 127°53'1019.1
2017-Dec-07 15:00N 38°13' W 127°40'3519.3
2017-Dec-07 13:12N 38°12' W 126°56'419.5
2017-Dec-07 13:01N 38°12' W 126°51'1019.1
2017-Dec-07 12:30N 38°12' W 126°39'1019.3
2017-Dec-07 12:00N 38°12' W 126°27'1019.4
2017-Dec-07 11:30N 38°12' W 126°14'1019.7
2017-Dec-07 11:00N 38°12' W 126°02'1120.0
2017-Dec-07 10:28N 38°12' W 125°48'919.6
2017-Dec-07 10:01N 38°12' W 125°37'1019.3
2017-Dec-07 09:31N 38°11' W 125°24'1019.6
2017-Dec-07 09:01N 38°11' W 125°12'1019.8
2017-Dec-07 08:30N 38°11' W 124°59'1019.7
2017-Dec-07 08:00N 38°11' W 124°47'1019.3
2017-Dec-07 07:31N 38°11' W 124°35'1019.1
2017-Dec-07 07:01N 38°11' W 124°23'919.0
2017-Dec-07 06:31N 38°11' W 124°10'1019.0
2017-Dec-07 06:00N 38°10' W 123°58'1019.1
2017-Dec-07 05:30N 38°10' W 123°46'919.1
2017-Dec-07 05:01N 38°10' W 123°34'1019.2
2017-Dec-07 04:31N 38°10' W 123°22'918.4
2017-Dec-07 04:01N 38°03' W 123°14'918.6
2017-Dec-07 03:30N 37°57' W 123°05'919.0
2017-Dec-07 03:01N 37°52' W 122°54'918.6
2017-Dec-07 02:30N 37°47' W 122°44'612.8
2017-Dec-07 02:00N 37°47' W 122°36'918.4
2017-Dec-07 01:30N 37°51' W 122°26'510.4
2017-Dec-07 01:00N 37°49' W 122°20'0 0.3
2017-Dec-07 00:28N 37°49' W 122°20'0 0.0
2017-Dec-06 23:58N 37°49' W 122°20'0 0.0
2017-Dec-06 23:28N 37°49' W 122°20'0 0.0
2017-Dec-06 22:58N 37°49' W 122°20'0 0.0
2017-Dec-06 22:28N 37°49' W 122°20'0 0.0
2017-Dec-06 21:58N 37°49' W 122°20'0 0.0
2017-Dec-06 21:28N 37°49' W 122°20'0 0.0
2017-Dec-06 20:58N 37°49' W 122°20'  
Track history (hours):
 
Tides and Currents Weather Stations Pressure Air Temp Water Temp Dewpoint Dewpoint Depression Visibility Wind Speed Wind Dir Waves Ship Positions

Bangkok Bridge

Last reported at 2017-Dec-15 21:00 UTC. Time now 2017-Dec-16 12:44 UTC.
Position N 47°30' E 154°36'.

Length 267 m; draft 11.8 m.

Type: Ship (hazmat cat A). MMSI: 353368000.

Wind from 230 at 26 knots

Barometer 1011.0 mb
Air temperature 1.0 ° C
Visibility: greater than 5.4 NM
Water temperature 12.0 ° C

Date/timePositionNaut miles runAvg speedWind from/ knotsBaromVisibWave heightAir tempDewpointWater temp
2017-Dec-15 21:00N 47°30' E 154°36'154361.7 230 / 261011.0 5.4 1.0 12.0
2017-Dec-14 20:00N 53°06' W 166°06'48420.2 340 / 26987.0 5.4 2.0 13.0
2017-Dec-13 20:00N 54°06' W 179°36'47419.7 090 / 22994.0 5.4 3.0 14.0
2017-Dec-12 20:00N 54°24' W 166°06'167 7.0 360 / 21990.0 5.4 4.0 15.0
2017-Dec-11 20:00N 53°42' W 161°30'   070 / 7982.0 5.4 12.0 19.0
2017-Dec-07 19:41N 38°58' W 129°20'419.8
2017-Dec-07 19:30N 38°56' W 129°16'1019.8
2017-Dec-07 19:00N 38°51' W 129°05'5919.6
2017-Dec-07 16:00N 38°18' W 128°03'919.1
2017-Dec-07 15:30N 38°13' W 127°53'1019.1
2017-Dec-07 15:00N 38°13' W 127°40'3519.3
2017-Dec-07 13:12N 38°12' W 126°56'419.5
2017-Dec-07 13:01N 38°12' W 126°51'1019.1
2017-Dec-07 12:30N 38°12' W 126°39'1019.3
2017-Dec-07 12:00N 38°12' W 126°27'1019.4
2017-Dec-07 11:30N 38°12' W 126°14'1019.7
2017-Dec-07 11:00N 38°12' W 126°02'1120.0
2017-Dec-07 10:28N 38°12' W 125°48'919.6
2017-Dec-07 10:01N 38°12' W 125°37'1019.3
2017-Dec-07 09:31N 38°11' W 125°24'1019.6
2017-Dec-07 09:01N 38°11' W 125°12'1019.8
2017-Dec-07 08:30N 38°11' W 124°59'1019.7
2017-Dec-07 08:00N 38°11' W 124°47'1019.3
2017-Dec-07 07:31N 38°11' W 124°35'1019.1
2017-Dec-07 07:01N 38°11' W 124°23'919.0
2017-Dec-07 06:31N 38°11' W 124°10'1019.0
2017-Dec-07 06:00N 38°10' W 123°58'1019.1
2017-Dec-07 05:30N 38°10' W 123°46'919.1
2017-Dec-07 05:01N 38°10' W 123°34'1019.2
2017-Dec-07 04:31N 38°10' W 123°22'918.4
2017-Dec-07 04:01N 38°03' W 123°14'918.6
2017-Dec-07 03:30N 37°57' W 123°05'919.0
2017-Dec-07 03:01N 37°52' W 122°54'918.6
2017-Dec-07 02:30N 37°47' W 122°44'612.8
2017-Dec-07 02:00N 37°47' W 122°36'918.4
2017-Dec-07 01:30N 37°51' W 122°26'510.4
2017-Dec-07 01:00N 37°49' W 122°20'0 0.3
2017-Dec-07 00:28N 37°49' W 122°20'0 0.0
2017-Dec-06 23:58N 37°49' W 122°20'0 0.0
2017-Dec-06 23:28N 37°49' W 122°20'0 0.0
2017-Dec-06 22:58N 37°49' W 122°20'0 0.0
2017-Dec-06 22:28N 37°49' W 122°20'0 0.0
2017-Dec-06 21:58N 37°49' W 122°20'0 0.0
2017-Dec-06 21:28N 37°49' W 122°20'0 0.0
2017-Dec-06 20:58N 37°49' W 122°20'  

Dump ship's entire track history